Location: Chimay
(50.0486°N, 4.3171°E)
Time: 21:55:01
(UTC+00:00)

Cosmos 1190 Rocket - Pass Details

Date: 08 August 2020
Orbit: 756 x 780 km, 74.1° (Epoch: 22 September)

Event Time Altitude Azimuth Distance (km) Brightness Sun altitude
Rises 20:15:20 0° 182° (S) 3,228 6.9 -9.2°
Reaches altitude 10° 20:17:46 10° 176° (S) 2,310 6.1 -9.6°
Maximum altitude 20:22:44 45° 105° (ESE) 1,055 4.3 -10.2°
Drops below altitude 10° 20:27:46 10° 34° (NE) 2,339 6.6 -10.8°
Sets 20:30:15 0° 29° (NNE) 3,274 7.4 -11.1°
